Home > Weather > Ghent > Past weeks

Flag for Belgium Weather for the Past 2 Weeks in Ghent, Belgium

Now
38 °F

Chilly.


Feels Like: 35 °F
Forecast: 34 / 42 °F
Wind: 3 mph from North

Location: Munte

Current Time: Feb 14, 2016 at 8:20:20 PM

Latest Report: Feb 14, 2016 at 7:00 PM


Visibility: 11 mi

Pressure: 29.44 "Hg

Humidity: 89%

Dew point: 35 °F

Location of GhentLocation

Historic Weather in Ghent — Graph

°F

Ghent Temperature Yesterday

Maximum temperature yesterday: 37 °F (at 12:00 PM)
Minimum temperature yesterday: 30 °F (at 5:00 AM)
Average temperature yesterday: 35 °F

High & Low Weather Summary for the Past Weeks

 TemperatureHumidityPressure
High54 °F (Jan 31, 10:00 PM)100% (Feb 5, 7:00 AM)30.33 "Hg (Feb 5, 7:00 AM)
Low30 °F (Feb 13, 5:00 AM)62% (Feb 6, 10:00 PM)29.00 "Hg (Feb 9, 12:00 PM)
Average43 °F86%29.67 "Hg
* Reported Jan 30 7:00 PM — Feb 14 7:00 PM, Ghent, Weather by CustomWeather, © 2016

Note: Actual official high and low records may vary slightly from our data, if they occured in-between our weather recording intervals... More about our weather records

Advertising

Ghent Weather History for the Previous 24 Hours

 ConditionsComfort  
Time TempWeatherWind HumidityBarometerVisibility
7:00 PM
Sun, Feb 14
38 °FChilly.3 mph89%29.44 "Hg11 mi
6:00 PM38 °FChilly.6 mph84%29.41 "Hg12 mi
5:00 PM38 °FChilly.3 mph92%29.38 "Hg7 mi
4:00 PM38 °FLight rain. Cloudy.3 mph94%29.35 "Hg3 mi
3:00 PM38 °FDrizzle. Cloudy.3 mph89%29.32 "Hg7 mi
2:00 PM38 °FLight rain. Cloudy.3 mph89%29.29 "Hg7 mi
1:00 PM38 °FLight rain. Cloudy.2 mph93%29.26 "Hg4 mi
12:00 PM36 °FDrizzle. Cloudy.N/A95%29.23 "Hg4 mi
11:00 AM36 °FLight rain. Cloudy.2 mph96%29.21 "Hg2 mi
10:00 AM36 °FLight rain. Cloudy.2 mph97%29.21 "Hg2 mi
9:00 AM36 °FDrizzle. Cloudy.2 mph97%29.18 "Hg2 mi
8:00 AM36 °FLight rain. Cloudy.2 mph98%29.15 "Hg1 mi
7:00 AM36 °FDrizzle. Overcast.2 mph98%29.15 "Hg1 mi
6:00 AM36 °FLight rain. Overcast.N/A98%29.12 "Hg1 mi
9:00 PM
Sat, Feb 13
37 °FFog.3 mph98%29.03 "Hg1 mi
8:00 PM37 °FFog.5 mph97%29.03 "Hg2 mi
Weather by CustomWeather, © 2016

See weather overviewHow to use our weather pages